"Pseudo-MPEC" for P22pkWL

Created 2026 Aug 13 23:35:31 UT using Find_Orb

Click here for an explanation of pseudo-MPECs

 
 Astrometry: 
     P22pkWL*0C2026 08 13.31570921 02 23.535+14 28 40.37   ~8DAK 21.04wXNEOCPF52
     P22pkWL 0C2026 08 13.32077121 02 25.266+14 28 17.94   ~8DAK 20.95wXNEOCPF52
     P22pkWL 0C2026 08 13.32583321 02 27.015+14 27 55.31   ~8DAK 21.10wXNEOCPF52
     P22pkWL 0C2026 08 13.46128921 03 12.900+14 17 43.38   ~8DL5 20.83GVNEOCPF51
     P22pkWL 0C2026 08 13.46193521 03 13.125+14 17 40.42   ~8DL5 21.08GVNEOCPF51
     P22pkWL KB2026 08 13.82235 21 05 27.24 +13 49 53.5    ~8DKZ 18.9 VZNEOCP106
     P22pkWL KB2026 08 13.82798 21 05 29.12 +13 49 28.7    ~8DKZ 18.5 VZNEOCP106
     P22pkWL KB2026 08 13.83346 21 05 31.05 +13 49 04.1    ~8DKZ 18.7 VZNEOCP106
     P22pkWL KB2026 08 13.83901 21 05 33.00 +13 48 39.2    ~8DKZ 18.9 VZNEOCP106
     P22pkWL KC2026 08 13.86106021 05 40.59 +13 46 59.7    ~8DLK 20.3 GXNEOCPL01
     P22pkWL KC2026 08 13.86444621 05 41.74 +13 46 44.5    ~8DLK 19.6 GXNEOCPL01
     P22pkWL KC2026 08 13.86783021 05 42.94 +13 46 29.8    ~8DLK 20.2 GXNEOCPL01
     P22pkWL KB2026 08 13.88364521 05 49.03 +13 45 17.7    ~8DLo 21.0 GXNEOCPI93
     P22pkWL KB2026 08 13.88663021 05 50.07 +13 45 04.2    ~8DLo 20.9 GXNEOCPI93
     P22pkWL KB2026 08 13.88960821 05 51.06 +13 44 51.2    ~8DLo 20.2 GXNEOCPI93
     P22pkWL 1C2026 08 13.95573021 06 13.007+13 39 45.80   ~8DNK 20.4 GXNEOCP033
     P22pkWL 1C2026 08 13.95656021 06 13.309+13 39 42.10   ~8DNK 20.5 GXNEOCP033
     P22pkWL 1C2026 08 13.95738021 06 13.590+13 39 38.40   ~8DNK 20.5 GXNEOCP033
     P22pkWL 1C2026 08 13.95820021 06 13.849+13 39 34.70   ~8DNK 20.7 GXNEOCP033

Station data:
(033) Karl Schwarzschild Observatory, Tautenburg  (N50.980139 E11.711240)
   Germany.  Observer B. Stecklum. 1.34-m f/3 Schmidt + CCD.
(106) Črni Vrh  (N45.945905 E14.071100)  Slovenia.  Observer J. Skvarč. 0.6-m
   f/3.3 Deltagraph + CCD.
(F51) Pan-STARRS 1, Haleakala  (N20.707234 W156.255910)  US/Hawaii.
   Observers J. Herman, T. Lowe, P. Minguez, A. Schultz, I. Smith. Measurers
   K. Chambers, T. de Boer, J. Fairlamb, H. Gao, M. Huber, C.-C. Lin, E.
   Magnier, Y. Ramanjooloo, R. Wainscoat, R. Weryk. 1.8-m Ritchey-Chrétien +
   CCD.
(F52) Pan-STARRS 2, Haleakala  (N20.707382 W156.255910)  US/Hawaii.
   Observers J. Herman, T. Lowe, P. Minguez, A. Schultz, I. Smith. Measurers
   K. Chambers, T. de Boer, J. Fairlamb, H. Gao, M. Huber, C.-C. Lin, E.
   Magnier, Y. Ramanjooloo, R. Wainscoat, R. Weryk. 1.8-m Ritchey-Chrétien +
   CCD.
(I93) St Pardon de Conques  (N44.558670 W0.202960)  France.  Observers F.
   Losse, W. D'Anna. Measurer F. Losse. 0.40-m f/3.7 reflector + CCD.
(L01) Višnjan Observatory, Tičan  (N45.290897 E13.749300)  Croatia.
   Observers K. Korlević, L. Poropat. Measurer K. Korlevic. 1.0-m f/2.9
   reflector + CCD.

Orbital elements:  P22pkWL
   Perihelion 2026 Jul 24.243665 +/- 0.39 TT =  5:50:52.6 (JD 2461245.743665)
Epoch 2026 Aug 14.0 TT = JDT 2461266.5   Earth MOID: 0.1299   Ma: 0.0666
M   6.291579858 +/- 0.13            (J2000 ecliptic)             AutoNEOCP
n   0.303116129 +/- 0.00197         Peri.  138.811261 +/- 0.57
a   2.194808759 +/- 0.00952         Node   160.905588 +/- 0.15
e   0.49626354 +/- 0.00189          Incl.    9.513946 +/- 0.09
P   3.25158                H 23.32  G  0.15   U  8.6
q 1.105605177 +/- 0.00126    Q 3.284012342 +/- 0.0183
From 19 observations 2026 Aug. 13 (15.4 hr); mean residual 0".25
Residuals in arcseconds: 
260813 F52  .00   .16-    260813 106  .02+  .14+    260813 I93  .45-  .47+    
260813 F52  .10-  .05+    260813 106  .49+  .22+    260813 033  .10-  .09-    
260813 F52  .09+  .06+    260813 L01  .09-  .51-    260813 033  .16+  .01-    
260813 F51  .04-  .04+    260813 L01  .28-  .44-    260813 033  .17+  .02+    
260813 F51  .05+  .03+    260813 L01  .29+  .13+    260813 033  .14-  .05+    
260813 106  .58+  .43-    260813 I93  .14-  .11+    
260813 106  .46-  .09+    260813 I93  .05+  .06+    

Ephemerides (geocentric):
Date (UTC) HH   RA             Dec           delta  r     elong  mag " sig PA
---- --------  ------------   ------------  ------ ------ -----  --- --------
2026 08 14 00  21 06 29.014   +13 37 04.40  .13263 1.1310 151.1 20.4 .289 151
2026 08 14 01  21 06 43.993   +13 33 54.85  .13267 1.1311 151.2 20.4 .353 148
2026 08 14 02  21 06 58.958   +13 30 45.26  .13272 1.1312 151.2 20.4 .424 146
2026 08 14 03  21 07 13.908   +13 27 35.64  .13276 1.1313 151.3 20.4 .501 145
2026 08 14 04  21 07 28.844   +13 24 25.98  .13280 1.1314 151.4 20.4 .584 143
2026 08 14 05  21 07 43.765   +13 21 16.29  .13285 1.1315 151.4 20.4 .674 142
2026 08 14 06  21 07 58.671   +13 18 06.56  .13289 1.1316 151.5 20.4 .771 141
2026 08 14 07  21 08 13.562   +13 14 56.81  .13294 1.1317 151.6 20.4 .873 141
2026 08 14 08  21 08 28.439   +13 11 47.03  .13298 1.1318 151.6 20.4 .982 140
2026 08 14 09  21 08 43.301   +13 08 37.22  .13303 1.1319 151.7 20.4 1.10 139
2026 08 14 10  21 08 58.149   +13 05 27.39  .13307 1.1320 151.8 20.4 1.22 139
2026 08 14 11  21 09 12.981   +13 02 17.53  .13312 1.1321 151.8 20.4 1.35 138
2026 08 14 12  21 09 27.799   +12 59 07.64  .13317 1.1322 151.9 20.4 1.48 138
2026 08 14 13  21 09 42.601   +12 55 57.74  .13321 1.1323 152.0 20.4 1.62 138
2026 08 14 14  21 09 57.389   +12 52 47.82  .13326 1.1324 152.1 20.4 1.77 137
2026 08 14 15  21 10 12.162   +12 49 37.87  .13331 1.1325 152.1 20.4 1.92 137
2026 08 14 16  21 10 26.920   +12 46 27.91  .13336 1.1326 152.2 20.4 2.08 137
2026 08 14 17  21 10 41.662   +12 43 17.94  .13340 1.1327 152.3 20.4 2.24 137
2026 08 14 18  21 10 56.390   +12 40 07.95  .13345 1.1328 152.3 20.4 2.42 136
2026 08 14 19  21 11 11.103   +12 36 57.94  .13350 1.1329 152.4 20.4 2.59 136
2026 08 14 20  21 11 25.800   +12 33 47.93  .13355 1.1330 152.5 20.4 2.78 136
2026 08 14 21  21 11 40.482   +12 30 37.90  .13360 1.1331 152.5 20.4 2.97 136
2026 08 14 22  21 11 55.150   +12 27 27.87  .13365 1.1332 152.6 20.4 3.16 136
2026 08 14 23  21 12 09.802   +12 24 17.83  .13370 1.1333 152.7 20.4 3.36 136
2026 08 15 00  21 12 24.438   +12 21 07.78  .13375 1.1334 152.7 20.4 3.57 135
2026 08 15 01  21 12 39.060   +12 17 57.73  .13380 1.1336 152.8 20.4 3.79 135
2026 08 15 02  21 12 53.666   +12 14 47.68  .13385 1.1337 152.9 20.4 4.01 135
2026 08 15 03  21 13 08.257   +12 11 37.63  .13390 1.1338 152.9 20.4 4.23 135
2026 08 15 04  21 13 22.832   +12 08 27.57  .13396 1.1339 153.0 20.4 4.46 135
2026 08 15 05  21 13 37.392   +12 05 17.52  .13401 1.1340 153.1 20.4 4.70 135
2026 08 15 06  21 13 51.937   +12 02 07.47  .13406 1.1341 153.2 20.4 4.95 135
2026 08 15 07  21 14 06.466   +11 58 57.42  .13411 1.1342 153.2 20.3 5.20 135
2026 08 15 08  21 14 20.980   +11 55 47.38  .13417 1.1343 153.3 20.3 5.45 135
2026 08 15 09  21 14 35.478   +11 52 37.35  .13422 1.1344 153.4 20.3 5.71 135
2026 08 15 10  21 14 49.960   +11 49 27.33  .13427 1.1345 153.4 20.3 5.98 134
2026 08 15 11  21 15 04.428   +11 46 17.31  .13433 1.1346 153.5 20.3 6.26 134
2026 08 15 12  21 15 18.879   +11 43 07.31  .13438 1.1347 153.6 20.3 6.53 134
2026 08 15 13  21 15 33.315   +11 39 57.32  .13444 1.1348 153.6 20.3 6.82 134
2026 08 15 14  21 15 47.735   +11 36 47.34  .13449 1.1349 153.7 20.3 7.11 134
2026 08 15 15  21 16 02.140   +11 33 37.38  .13455 1.1350 153.8 20.3 7.41 134
2026 08 15 16  21 16 16.529   +11 30 27.44  .13461 1.1351 153.8 20.3 7.71 134
2026 08 15 17  21 16 30.902   +11 27 17.51  .13466 1.1352 153.9 20.3 8.02 134
2026 08 15 18  21 16 45.259   +11 24 07.61  .13472 1.1354 154.0 20.3 8.34 134
2026 08 15 19  21 16 59.601   +11 20 57.72  .13478 1.1355 154.0 20.3 8.66 134
2026 08 15 20  21 17 13.926   +11 17 47.86  .13483 1.1356 154.1 20.3 8.98 134
2026 08 15 21  21 17 28.236   +11 14 38.02  .13489 1.1357 154.2 20.3 9.31 134
2026 08 15 22  21 17 42.530   +11 11 28.21  .13495 1.1358 154.3 20.3 9.65 134
2026 08 15 23  21 17 56.809   +11 08 18.42  .13501 1.1359 154.3 20.3 10.0 134